SCP
0 0 -0 -0 -0 0 -0 0 0 0 0 0 0 0 0 0 0 0 0 0 0 0 0 0 0 0 0 0 0 0 0 0 0 0 0 0 0 0 0 0 0 0 0
0 0 0 0 -0 0 0 0 -0 0 0 0 0 0 0 0 0 0 0 0 0 0 0 0 0 0 0 0 0 0 0 0 0 0 0 0 0 0 0 0 0 0 0
0 0 0 0 0 0 0 0 0 0 0 0 0 0 0 0 0 0 0 0 0 0 0 0 0 0 0 0 0 0 0 0 0 0 0 0 0 0 0 0 0 0 0
0 0 0 0 0 0 0 0 0 -0 0 0 0 0 0 0 0 0 0 0 0 0 0 0 0 0 0 0 0 0 0 0 0 0 0 0 0 0 0 0 -0 0 0
0 0 0 0 0 0 0 0 -0 -0 0 0 0 0 0 0 0 0 0 0 0 0 0 0 0 0 0 0 0 0 0 0 0 0 0 0 0 0 0 0 0 0 0
0 0 0 0 0 0 -0 -0 -0 0 0 0 0 0 0 0 0 0 0 0 0 0 0 0 0 0 0 0 0 0 0 0 0 0 0 0 0 0 0 0 0 0 0
0 0 0 0 0 0 -0 -0 0 0 0 0 0 0 0 0 0 0 0 0 0 0 0 0 0 0 0 0 0 0 0 0 0 0 0 0 0 0 0 0 0 0 0
0 0 0 0 0 -0 -0 0 0 0 0 0 0 0 0 0 0 0 0 0 0 0 0 0 -0 -0 -0 0 0 0 0 0 0 0 0 0 0 0 0 0 0 0 0
0 0 -0 -0 0 0 0 0 0 0 0 0 0 0 0 0 0 0 0 -0 -0 -0 -0 -0 -0 -0 -0 -0 -0 0 0 0 0 0 0 0 0 0 0 0 0 0 0
0 0 0 0 -0 -0 0 0 0 0 0 0 -0 -0 -0 0 0 -0 -0 -0 -0 0 0 -0 -0 -0 0 -0 -0 -0 0 -0 -0 -0 0 -0 0 0 -0 -0 -0 0 0
-0 0 -0 -0 -0 -0 0 0 -0 -0 -0 -0 -0 0 0 0 -0 0 0 -0 0 -0 0 -0 0 -0 -0 0 -0 0 -0 -0 -0 -0 0 0 0 -0 -0 -0 -0 0 0
-0 -0 -0 0 0 0 -0 -0 -0 -0 -0 -0 0 0 0 -0 0 0 -0 -0 -0 -0 -0 0 0 0 0 0 0 0 -0 0 -0 -0 -0 -0 -0 0 0 0 0 0 0
-0 0 -0 -0 0 0 0 -0 -0 -0 0 0 0 0 0 0 0 -0 0 -0 -0 -0 -0 -0 -0 -0 -0 0 -0 0 0 0 0 -0 -0 0 0 0 0 0 0 0 0
-0 -0 0 -0 0 0 0 -0 0 0 0 0 0 0 0 -0 -0 0 -0 -0 -0 -0 -0 -0 -0 -0 -0 -0 0 -0 0 0 0 0 0 0 0 0 0 0 0 0 0
-0 0 0 0 0 0 0 0 0 0 0 0 0 0 0 0 0 0 -0 -0 -0 -0 -0 0 -0 -0 -0 -0 -0 -0 0 -0 -0 0 0 0 0 0 0 0 0 0 0
0 -0 0 -0 0 0 0 0 0 -0 -0 -0 -0 -0 0 -0 -0 -0 -0 -0 -0 -0 -0 0 0 0 -0 -0 -0 -0 0 -0 0 0 0 0 0 0 0 0 0 0 0
-0 -0 0 0 0 0 0 0 0 0 0 0 0 -0 -0 -0 0 0 0 0 -0 -0 -0 0 0 0 0 -0 -0 -0 -0 0 0 0 0 0 0 0 0 0 0 0 0
-0 0 0 0 0 0 0 0 0 0 0 0 -0 -0 -0 -0 0 0 0 0 -0 -0 -0 -0 -0 0 0 -0 -0 -0 0 0 0 0 0 0 0 0 0 0 0 0 0
0 0 0 0 0 0 0 0 0 0 0 0 0 0 0 0 0 0 0 0 -0 -0 -0 0 0 0 0 0 -0 0 0 0 0 0 0 0 0 0 0 0 0 0 0
0 0 0 0 0 0 0 0 0 0 0 0 0 0 0 0 0 0 0 0 0 -0 0 0 0 0 0 0 0 0 0 0 0 0 0 0 0 0 0 0 0 0 0
0 0 0 0 0 -0 -0 0 0 0 0 0 0 0 0 0 0 0 0 0 0 0 0 0 0 0 0 0 0 0 0 0 0 0 0 0 0 0 0 0 0 0 0
0 0 0 0 -0 0 0 0 0 0 0 0 0 0 0 0 0 0 0 0 0 0 0 0 0 0 0 0 0 0 0 0 0 0 0 0 0 0 0 0 -0 -0 -0
0 0 0 0 0 0 0 0 0 0 0 0 0 0 0 0 0 0 0 0 0 0 0 0 0 0 0 0 0 0 0 0 0 0 0 0 0 0 0 0 0 0 -0
0 0 0 0 0 0 0 0 0 0 0 0 0 0 0 0 0 0 0 0 0 0 0 0 0 0 0 0 0 0 0 0 0 0 0 0 0 0 0 0 0 0 -0
0 0 0 0 0 0 0 0 0 0 0 0 0 0 0 0 0 0 0 0 0 0 0 0 0 0 0 0 0 0 0 0 0 0 0 0 0 0 0 0 0 0 0
0 0 0 0 0 0 0 0 0 0 0 0 0 0 0 0 0 0 0 0 0 0 0 0 0 0 0 0 0 0 0 0 0 0 0 0 0 0 0 0 -0 -0 -0
Wind_Speed_500mb
40 44 54 54 44 44 47 52 47 44 38 34 38 41 39 36 37 38 38 36 37 39 39 38 43 41 38 36 29 25 35 35 32 24 34 28 30 24 14 12 8 3 3
41 39 40 51 48 43 37 34 39 54 38 33 32 32 33 35 34 34 37 35 33 32 34 32 31 31 30 25 22 20 29 33 31 31 42 37 28 19 17 16 7 17 8
44 41 40 36 50 41 37 30 32 50 36 28 26 28 31 33 32 29 30 29 29 29 27 21 10 1 6 11 14 15 22 30 33 46 46 36 32 27 22 20 14 14 6
44 46 46 37 40 41 31 36 39 36 29 25 27 25 26 23 22 23 24 23 23 22 19 14 10 11 19 26 30 38 43 48 51 51 46 39 25 25 17 9 10 11 8
46 48 46 36 37 29 32 40 28 26 23 20 17 22 23 23 24 21 20 22 22 20 17 16 17 13 21 27 32 40 39 47 45 45 40 36 22 19 6 12 16 33 19
49 47 38 30 40 25 32 31 26 16 15 15 20 23 25 28 25 24 20 20 21 20 22 20 23 26 31 27 29 39 38 34 42 39 26 38 26 23 18 18 17 31 19
39 46 34 41 29 25 34 22 15 13 15 18 21 22 24 26 25 24 21 22 21 18 20 15 15 25 27 28 32 27 23 22 30 39 35 29 18 15 15 15 13 13 15
36 38 41 30 13 24 21 12 11 12 15 18 21 21 25 38 37 37 43 36 37 27 23 28 28 36 35 24 27 14 25 35 32 28 21 16 6 14 16 11 12 15 10
32 33 18 14 19 16 8 13 18 19 24 33 36 30 35 34 28 26 32 33 28 19 16 14 14 10 13 24 27 24 31 34 27 21 20 23 19 5 14 15 23 23 9
27 26 24 29 16 10 19 22 29 40 43 40 41 38 38 36 40 26 23 22 27 27 23 31 30 34 20 20 36 31 29 33 27 30 30 25 29 20 9 22 31 27 20
23 25 15 10 17 26 32 38 46 47 47 43 37 34 34 31 34 30 26 28 25 31 37 43 44 37 33 34 35 34 34 30 23 31 26 25 28 27 27 23 19 16 16
18 5 13 31 40 45 51 48 45 47 45 46 51 47 45 41 37 35 34 33 39 46 43 41 40 28 33 30 28 27 26 27 23 24 28 28 26 35 35 32 28 25 23
4 23 42 50 55 51 47 44 38 34 37 40 42 40 39 44 44 44 38 29 31 28 30 31 30 32 36 32 26 29 28 27 24 24 26 22 22 26 33 39 35 37 35
28 47 56 50 39 40 30 28 36 42 47 41 42 42 42 40 37 28 34 26 27 28 30 35 28 34 28 33 38 33 27 20 19 21 24 21 21 21 27 34 47 43 47
51 55 44 46 46 44 42 42 40 42 39 41 41 41 47 45 37 42 45 39 33 30 34 39 39 42 37 39 36 33 32 25 25 29 26 24 26 25 29 36 51 61 63
64 58 52 48 48 53 51 55 47 43 44 46 42 41 37 35 36 37 44 32 39 35 45 45 43 37 43 38 38 39 27 30 33 27 28 32 32 33 37 37 41 51 54
62 56 51 47 46 47 48 51 55 52 51 48 45 41 38 33 26 36 30 44 46 41 50 49 50 44 47 41 46 45 45 41 33 35 38 39 39 43 45 46 47 44 43
60 55 41 40 41 43 43 42 40 43 50 45 40 40 41 39 35 21 33 40 44 46 46 43 49 45 46 46 51 48 42 47 44 44 44 45 49 54 57 55 53 55 53
38 47 40 38 33 39 37 34 31 31 30 35 37 42 41 45 46 49 51 44 45 48 45 49 43 47 51 46 53 54 63 56 58 55 70 77 78 71 66 63 66 70 72
55 44 44 38 37 32 35 39 39 35 36 47 43 39 38 40 48 51 53 52 51 48 50 50 47 45 51 47 47 48 52 59 61 68 82 77 76 84 80 65 67 74 77
43 39 36 36 37 36 38 41 42 44 46 46 46 44 43 48 51 51 52 52 54 49 49 45 42 47 49 47 51 51 53 58 57 68 65 70 57 55 64 78 70 74 79
34 35 38 38 41 42 43 42 42 43 43 45 47 46 47 51 51 52 49 47 52 56 54 46 45 53 51 44 45 56 56 61 52 44 46 48 55 56 48 59 82 85 83
39 41 43 47 46 42 43 42 40 41 43 44 46 49 50 51 52 54 54 53 48 37 46 53 50 51 54 53 51 48 54 55 58 51 52 51 53 57 58 52 37 53 61
38 42 41 40 41 43 44 44 41 41 44 47 50 50 50 52 54 52 48 48 53 55 53 49 49 53 54 53 53 49 47 45 46 46 48 52 56 57 55 57 57 49 37
38 41 41 40 42 43 43 41 41 42 45 48 49 51 51 51 50 51 52 52 57 55 60 64 61 54 50 51 53 53 50 47 52 57 53 52 52 52 50 47 51 51 50
40 41 41 39 40 40 40 41 41 43 44 47 48 46 46 46 47 46 45 43 43 48 55 58 57 55 52 49 47 48 49 45 44 47 49 51 51 48 45 49 51 50 48
Wind_Direction_500mb
321 334 328 329 326 336 323 308 331 330 329 334 319 311 312 315 318 315 312 310 309 306 303 297 292 287 287 288 283 259 227 213 204 165 204 186 176 179 182 228 222 249 131
322 322 328 324 317 340 322 319 321 321 320 315 313 315 319 323 323 330 331 328 332 331 324 311 299 290 285 280 271 252 225 223 217 180 158 153 151 181 171 155 154 260 310
319 327 320 323 319 323 328 326 329 308 310 322 327 332 334 336 338 350 341 348 354 354 349 343 337 320 173 164 160 163 144 136 151 152 141 132 152 149 133 102 145 206 286
316 318 316 308 323 321 314 324 319 315 331 343 342 354 359 1 14 16 16 22 19 23 33 39 60 97 118 122 126 127 136 130 131 127 127 123 130 130 115 116 124 163 171
316 313 314 303 325 301 300 311 325 332 348 355 11 26 31 36 37 32 32 35 34 38 43 58 61 91 113 109 119 119 125 128 122 119 124 123 127 143 143 173 170 167 152
315 318 316 309 313 292 313 336 332 342 16 32 43 42 44 53 46 41 33 33 39 59 73 84 97 101 105 109 121 119 110 116 119 128 128 115 119 129 141 117 144 186 149
318 316 319 320 286 305 330 337 335 24 42 48 51 47 52 52 37 40 42 49 56 60 62 71 108 114 116 88 75 93 107 121 118 119 123 116 133 147 163 135 119 137 143
322 326 318 320 289 335 343 342 37 62 60 54 49 52 65 80 60 53 60 79 84 69 65 66 98 109 112 88 80 84 88 93 96 87 93 110 141 164 158 152 181 208 162
326 332 325 343 347 354 25 77 79 67 63 62 58 74 78 73 62 66 65 57 63 79 84 82 88 47 88 105 106 112 93 82 83 83 79 65 47 186 162 140 151 168 151
323 329 337 345 12 57 91 86 80 76 75 74 70 68 60 63 61 65 70 76 65 76 69 55 55 71 129 123 112 114 110 93 83 88 79 52 23 22 190 205 163 141 154
320 320 336 20 89 93 89 84 91 85 75 72 72 61 63 65 56 74 68 84 83 86 83 80 69 73 66 73 86 89 87 91 93 111 77 51 34 58 77 95 148 183 181
319 346 79 96 93 91 92 91 87 84 83 77 72 69 68 69 63 58 67 76 81 86 88 85 73 74 84 84 80 72 74 86 75 70 63 53 49 55 67 79 90 105 107
128 102 103 105 100 92 87 88 79 76 76 70 63 70 72 75 75 77 68 69 74 76 80 97 83 84 80 80 75 94 88 99 100 76 66 67 63 65 70 67 86 92 96
118 113 109 99 89 84 83 85 91 87 78 73 73 73 64 67 68 87 58 88 71 74 82 75 83 83 77 85 81 86 82 67 64 72 86 90 94 97 88 96 91 99 96
121 112 103 95 97 97 97 91 86 83 86 87 81 79 78 76 73 71 78 74 68 71 73 74 73 87 70 86 77 83 66 51 65 98 97 102 104 105 104 104 105 99 95
115 108 103 100 101 98 97 89 83 85 84 86 82 80 82 78 70 72 80 86 67 75 68 70 73 84 69 91 71 66 56 83 89 95 100 108 108 105 107 111 113 111 108
113 108 105 109 106 99 93 88 90 87 86 84 82 75 72 75 90 73 81 63 73 59 63 71 69 85 65 79 66 67 73 77 85 93 101 103 104 108 109 111 113 108 104
114 114 113 114 111 101 89 92 89 85 82 81 74 70 74 72 63 80 68 76 76 70 70 65 67 78 79 77 60 74 77 77 81 94 103 103 106 107 107 108 109 110 109
102 118 119 114 105 109 110 108 104 98 89 85 82 71 67 56 61 67 70 69 71 78 71 68 69 76 82 75 73 79 75 79 82 94 100 95 89 90 97 102 108 109 108
124 127 123 118 113 108 100 91 81 82 74 73 76 71 70 67 61 59 61 64 67 72 75 73 69 76 77 73 75 79 80 81 81 102 94 88 82 76 77 93 103 107 105
123 117 112 108 100 92 91 90 90 88 85 80 75 74 73 69 68 65 60 64 65 73 75 71 82 78 84 80 80 76 89 83 88 84 89 88 79 86 83 77 90 99 100
117 110 108 102 101 99 98 94 93 91 87 82 78 74 75 74 71 64 62 68 74 74 71 71 82 87 88 83 80 77 85 72 83 79 74 79 77 80 98 90 86 88 92
110 110 108 106 103 100 100 96 91 89 87 84 81 78 76 75 73 71 68 61 64 74 83 80 88 94 92 88 85 88 85 78 79 86 83 90 87 87 90 100 104 94 91
115 112 107 107 105 102 99 97 93 90 87 85 82 80 77 75 74 70 73 75 72 68 78 90 99 101 97 90 88 88 88 92 87 87 88 90 87 89 89 92 98 102 101
115 112 108 107 106 104 101 99 95 91 88 86 82 79 75 73 74 75 76 68 67 77 79 83 89 94 94 95 93 90 88 88 84 87 82 85 89 91 94 93 92 92 93
115 112 110 109 108 106 103 101 98 95 91 89 87 84 82 79 77 76 74 74 83 84 87 91 90 91 91 92 94 94 93 92 96 98 98 94 91 88 89 89 96 103 105
Wind_Speed_850mb
40 44 54 54 44 44 47 52 47 44 38 34 38 41 39 36 37 38 38 36 37 39 39 38 43 41 38 36 29 25 35 35 32 24 34 28 30 24 14 12 8 3 3
41 39 40 51 48 43 37 34 39 54 38 33 32 32 33 35 34 34 37 35 33 32 34 32 31 31 30 25 22 20 29 33 31 31 42 37 28 19 17 16 7 17 8
44 41 40 36 50 41 37 30 32 50 36 28 26 28 31 33 32 29 30 29 29 29 27 21 10 1 6 11 14 15 22 30 33 46 46 36 32 27 22 20 14 14 6
44 46 46 37 40 41 31 36 39 36 29 25 27 25 26 23 22 23 24 23 23 22 19 14 10 11 19 26 30 38 43 48 51 51 46 39 25 25 17 9 10 11 8
46 48 46 36 37 29 32 40 28 26 23 20 17 22 23 23 24 21 20 22 22 20 17 16 17 13 21 27 32 40 39 47 45 45 40 36 22 19 6 12 16 33 19
49 47 38 30 40 25 32 31 26 16 15 15 20 23 25 28 25 24 20 20 21 20 22 20 23 26 31 27 29 39 38 34 42 39 26 38 26 23 18 18 17 31 19
39 46 34 41 29 25 34 22 15 13 15 18 21 22 24 26 25 24 21 22 21 18 20 15 15 25 27 28 32 27 23 22 30 39 35 29 18 15 15 15 13 13 15
36 38 41 30 13 24 21 12 11 12 15 18 21 21 25 38 37 37 43 36 37 27 23 28 28 36 35 24 27 14 25 35 32 28 21 16 6 14 16 11 12 15 10
32 33 18 14 19 16 8 13 18 19 24 33 36 30 35 34 28 26 32 33 28 19 16 14 14 10 13 24 27 24 31 34 27 21 20 23 19 5 14 15 23 23 9
27 26 24 29 16 10 19 22 29 40 43 40 41 38 38 36 40 26 23 22 27 27 23 31 30 34 20 20 36 31 29 33 27 30 30 25 29 20 9 22 31 27 20
23 25 15 10 17 26 32 38 46 47 47 43 37 34 34 31 34 30 26 28 25 31 37 43 44 37 33 34 35 34 34 30 23 31 26 25 28 27 27 23 19 16 16
18 5 13 31 40 45 51 48 45 47 45 46 51 47 45 41 37 35 34 33 39 46 43 41 40 28 33 30 28 27 26 27 23 24 28 28 26 35 35 32 28 25 23
4 23 42 50 55 51 47 44 38 34 37 40 42 40 39 44 44 44 38 29 31 28 30 31 30 32 36 32 26 29 28 27 24 24 26 22 22 26 33 39 35 37 35
28 47 56 50 39 40 30 28 36 42 47 41 42 42 42 40 37 28 34 26 27 28 30 35 28 34 28 33 38 33 27 20 19 21 24 21 21 21 27 34 47 43 47
51 55 44 46 46 44 42 42 40 42 39 41 41 41 47 45 37 42 45 39 33 30 34 39 39 42 37 39 36 33 32 25 25 29 26 24 26 25 29 36 51 61 63
64 58 52 48 48 53 51 55 47 43 44 46 42 41 37 35 36 37 44 32 39 35 45 45 43 37 43 38 38 39 27 30 33 27 28 32 32 33 37 37 41 51 54
62 56 51 47 46 47 48 51 55 52 51 48 45 41 38 33 26 36 30 44 46 41 50 49 50 44 47 41 46 45 45 41 33 35 38 39 39 43 45 46 47 44 43
60 55 41 40 41 43 43 42 40 43 50 45 40 40 41 39 35 21 33 40 44 46 46 43 49 45 46 46 51 48 42 47 44 44 44 45 49 54 57 55 53 55 53
38 47 40 38 33 39 37 34 31 31 30 35 37 42 41 45 46 49 51 44 45 48 45 49 43 47 51 46 53 54 63 56 58 55 70 77 78 71 66 63 66 70 72
55 44 44 38 37 32 35 39 39 35 36 47 43 39 38 40 48 51 53 52 51 48 50 50 47 45 51 47 47 48 52 59 61 68 82 77 76 84 80 65 67 74 77
43 39 36 36 37 36 38 41 42 44 46 46 46 44 43 48 51 51 52 52 54 49 49 45 42 47 49 47 51 51 53 58 57 68 65 70 57 55 64 78 70 74 79
34 35 38 38 41 42 43 42 42 43 43 45 47 46 47 51 51 52 49 47 52 56 54 46 45 53 51 44 45 56 56 61 52 44 46 48 55 56 48 59 82 85 83
39 41 43 47 46 42 43 42 40 41 43 44 46 49 50 51 52 54 54 53 48 37 46 53 50 51 54 53 51 48 54 55 58 51 52 51 53 57 58 52 37 53 61
38 42 41 40 41 43 44 44 41 41 44 47 50 50 50 52 54 52 48 48 53 55 53 49 49 53 54 53 53 49 47 45 46 46 48 52 56 57 55 57 57 49 37
38 41 41 40 42 43 43 41 41 42 45 48 49 51 51 51 50 51 52 52 57 55 60 64 61 54 50 51 53 53 50 47 52 57 53 52 52 52 50 47 51 51 50
40 41 41 39 40 40 40 41 41 43 44 47 48 46 46 46 47 46 45 43 43 48 55 58 57 55 52 49 47 48 49 45 44 47 49 51 51 48 45 49 51 50 48
Wind_Direction_850mb
321 334 328 329 326 336 323 308 331 330 329 334 319 311 312 315 318 315 312 310 309 306 303 297 292 287 287 288 283 259 227 213 204 165 204 186 176 179 182 228 222 249 131
322 322 328 324 317 340 322 319 321 321 320 315 313 315 319 323 323 330 331 328 332 331 324 311 299 290 285 280 271 252 225 223 217 180 158 153 151 181 171 155 154 260 310
319 327 320 323 319 323 328 326 329 308 310 322 327 332 334 336 338 350 341 348 354 354 349 343 337 320 173 164 160 163 144 136 151 152 141 132 152 149 133 102 145 206 286
316 318 316 308 323 321 314 324 319 315 331 343 342 354 359 1 14 16 16 22 19 23 33 39 60 97 118 122 126 127 136 130 131 127 127 123 130 130 115 116 124 163 171
316 313 314 303 325 301 300 311 325 332 348 355 11 26 31 36 37 32 32 35 34 38 43 58 61 91 113 109 119 119 125 128 122 119 124 123 127 143 143 173 170 167 152
315 318 316 309 313 292 313 336 332 342 16 32 43 42 44 53 46 41 33 33 39 59 73 84 97 101 105 109 121 119 110 116 119 128 128 115 119 129 141 117 144 186 149
318 316 319 320 286 305 330 337 335 24 42 48 51 47 52 52 37 40 42 49 56 60 62 71 108 114 116 88 75 93 107 121 118 119 123 116 133 147 163 135 119 137 143
322 326 318 320 289 335 343 342 37 62 60 54 49 52 65 80 60 53 60 79 84 69 65 66 98 109 112 88 80 84 88 93 96 87 93 110 141 164 158 152 181 208 162
326 332 325 343 347 354 25 77 79 67 63 62 58 74 78 73 62 66 65 57 63 79 84 82 88 47 88 105 106 112 93 82 83 83 79 65 47 186 162 140 151 168 151
323 329 337 345 12 57 91 86 80 76 75 74 70 68 60 63 61 65 70 76 65 76 69 55 55 71 129 123 112 114 110 93 83 88 79 52 23 22 190 205 163 141 154
320 320 336 20 89 93 89 84 91 85 75 72 72 61 63 65 56 74 68 84 83 86 83 80 69 73 66 73 86 89 87 91 93 111 77 51 34 58 77 95 148 183 181
319 346 79 96 93 91 92 91 87 84 83 77 72 69 68 69 63 58 67 76 81 86 88 85 73 74 84 84 80 72 74 86 75 70 63 53 49 55 67 79 90 105 107
128 102 103 105 100 92 87 88 79 76 76 70 63 70 72 75 75 77 68 69 74 76 80 97 83 84 80 80 75 94 88 99 100 76 66 67 63 65 70 67 86 92 96
118 113 109 99 89 84 83 85 91 87 78 73 73 73 64 67 68 87 58 88 71 74 82 75 83 83 77 85 81 86 82 67 64 72 86 90 94 97 88 96 91 99 96
121 112 103 95 97 97 97 91 86 83 86 87 81 79 78 76 73 71 78 74 68 71 73 74 73 87 70 86 77 83 66 51 65 98 97 102 104 105 104 104 105 99 95
115 108 103 100 101 98 97 89 83 85 84 86 82 80 82 78 70 72 80 86 67 75 68 70 73 84 69 91 71 66 56 83 89 95 100 108 108 105 107 111 113 111 108
113 108 105 109 106 99 93 88 90 87 86 84 82 75 72 75 90 73 81 63 73 59 63 71 69 85 65 79 66 67 73 77 85 93 101 103 104 108 109 111 113 108 104
114 114 113 114 111 101 89 92 89 85 82 81 74 70 74 72 63 80 68 76 76 70 70 65 67 78 79 77 60 74 77 77 81 94 103 103 106 107 107 108 109 110 109
102 118 119 114 105 109 110 108 104 98 89 85 82 71 67 56 61 67 70 69 71 78 71 68 69 76 82 75 73 79 75 79 82 94 100 95 89 90 97 102 108 109 108
124 127 123 118 113 108 100 91 81 82 74 73 76 71 70 67 61 59 61 64 67 72 75 73 69 76 77 73 75 79 80 81 81 102 94 88 82 76 77 93 103 107 105
123 117 112 108 100 92 91 90 90 88 85 80 75 74 73 69 68 65 60 64 65 73 75 71 82 78 84 80 80 76 89 83 88 84 89 88 79 86 83 77 90 99 100
117 110 108 102 101 99 98 94 93 91 87 82 78 74 75 74 71 64 62 68 74 74 71 71 82 87 88 83 80 77 85 72 83 79 74 79 77 80 98 90 86 88 92
110 110 108 106 103 100 100 96 91 89 87 84 81 78 76 75 73 71 68 61 64 74 83 80 88 94 92 88 85 88 85 78 79 86 83 90 87 87 90 100 104 94 91
115 112 107 107 105 102 99 97 93 90 87 85 82 80 77 75 74 70 73 75 72 68 78 90 99 101 97 90 88 88 88 92 87 87 88 90 87 89 89 92 98 102 101
115 112 108 107 106 104 101 99 95 91 88 86 82 79 75 73 74 75 76 68 67 77 79 83 89 94 94 95 93 90 88 88 84 87 82 85 89 91 94 93 92 92 93
115 112 110 109 108 106 103 101 98 95 91 89 87 84 82 79 77 76 74 74 83 84 87 91 90 91 91 92 94 94 93 92 96 98 98 94 91 88 89 89 96 103 105